User: anonymous   Login
Location: Unspecified
(0.0000°N, 0.0000°E)
Time: 08:53:16
(UTC+00:00)
Language:

NOSS 2-2 (E) - Orbit

View from above orbital plane
View from above orbital plane
View from above satellite
View from above satellite

Ground track
Ground track

The orbit data is extracted from the following two-line orbital elements,

1 21809U 91076E   24103.96476472 0.00005100  00000-0  49499-3 0    05
2 21809  63.3105 103.0594 0906388  57.5736 302.3136 13.48500275    02
Epoch (UTC): 12 April 2024 23:09:15
Eccentricity: 0.0906388
inclination: 63.3105°
perigee height: 402 km
apogee height: 1753 km
right ascension of ascending node: 103.0594°
argument of perigee: 57.5736°
revolutions per day: 13.48500275
mean anomaly at epoch: 302.3136°
orbit number at epoch: 0

The dashed part of the orbit path shows where the satellite is in the earth's shadow,  

DLR